Tracking 32139 objects as of 16-Nov-2025
HD Live streaming from Space Station
objects crossing your sky now

LIMASAT

Track LIMASAT now!
10-day predictions


NORAD ID: 65272
Int'l Code: 2025-183B
Perigee: 331.7 km
Apogee: 340.3 km
Inclination: 49.5 °
Period: 91.1 minutes
Semi major axis: 6707 km
RCS: Unknown
Launch date: August 22, 2025
Source: United States (US)
Launch site: AIR FORCE EASTERN TEST RANGE (AFETR)
Your satellite tracking list
Your tracking list is empty




NASA's NSSDC Master Catalog

Two Line Element Set (TLE):
1 65272U 25183B   25251.81098455 0.00075783  00000-0  38663-3 0    08
2 65272  49.5221 185.8300 0006423  21.0132 338.9866 15.80547521    07
Source of the keplerian elements: McCants